SXM-10

Last updated on Wed Oct 29 2025 00:02:51 GMT+0000 (Coordinated Universal Time)

1 64290U 25122A 25301.05290464 -.00000005 00000+0 00000+0 0 9998 2 64290 0.0333 29.1054 0002202 323.7173 306.7326 1.00263291 1355
UTC large
Height (km)
Speed (km/s)
/
Latitude / Longitude
Inclination (degrees)
Orbital Period (minutes)
Azimuth
Elevation
Range (km)
Doppler Factor

Next 0 passes for location: London (51.5072 / 0.1276)

Sorry there are no passes over London.